Tracking 18851 objects as of 24-Nov-2017
HD Live streaming from Space Station
objects crossing your sky now

FENGYUN 1C DEB

Track FENGYUN 1C DEB now!
10-day predictions


NORAD ID: 29958
Int'l Code: 1999-025KG
Perigee: 818.1 km
Apogee: 902.7 km
Inclination: 98.9 °
Period: 102.0 minutes
Semi major axis: 7231 km
RCS: 0.1257 m2 (medium)
Launch date: May 10, 1999
Source: People's Republic of China (PRC)
Launch site: Taiyaun Space Center, China (TSC)

Note: This is SATELLITE DEBRIS
aabbcc
Your satellite tracking list
Your tracking list is empty




NASA's NSSDC Master Catalog

Two Line Element Set (TLE):
1 29958U 99025KG  17328.07432130 +.00000182 +00000-0 +12221-3 0  9991
2 29958 098.9497 352.5742 0058505 037.4949 323.0281 14.11798989559362
Source of the keplerian elements: AFSPC